Bad Axe, MI

5:31 PM EDT on October 18, 2017 (GMT -0400)
Huron County Memorial

Weather History for KBAX - December, 2011

Change the Weather History Date:

Wednesday, December 14, 2011

  Actual Average (KP58) Record (KP58)
Temperature  
Mean Temperature 38 °F -  
Max Temperature 42 °F 34 °F 59 °F (2015)
Min Temperature 33 °F 25 °F 9 °F (2016)
Degree Days  
Heating Degree Days 28    
Moisture  
Dew Point 35 °F    
Average Humidity 93    
Maximum Humidity 100    
Minimum Humidity 87    
Precipitation  
Precipitation 0.00 in - - ()
Sea Level Pressure  
Sea Level Pressure 30.10 in    
Wind  
Wind Speed 5 mph (SSE)    
Max Wind Speed 14 mph    
Max Gust Speed 20 mph    
Visibility 6 miles    
Events Rain , Snow    
Averages and records for this station are not official NWS values.
T = Trace of Precipitation, MM = Missing Value Source: NWS Daily Summary

Daily Weather History Graph

Daily Weather History Graph

Search for Another Location

Airport or City:

Trip Planner

Search our weather history database for the weather conditions in past years. The results will help you decide how hot, cold, wet, or windy it might be!

Date:

Astronomy

Dec. 14, 2011 Rise Set
Actual Time 7:58 AM EST 4:55 PM EST
Civil Twilight 7:25 AM EST 5:27 PM EST
Nautical Twilight 6:48 AM EST 6:04 PM EST
Astronomical Twilight 6:13 AM EST 6:39 PM EST
Moon 9:20 PM EST (12/14) 10:36 AM EST (12/14)
Length of Visible Light 10h 02m
Length of Day
8h 56m
Waning Gibbous, 83% of the Moon is Illuminated
Dec 14
Waning Gibbous
Dec 17
Last Quarter
Dec 24
New
Jan 1
First Quarter
Jan 9
Full

Hourly Weather History & Observations

Time (EST) Temp. Windchill Dew Point Humidity Pressure Visibility Wind Dir Wind Speed Gust Speed Precip Events Conditions
12:13 AM 33.8 °F 29.6 °F 30.2 °F 87% 30.32 in 10.0 mi South 4.6 mph - N/A   Overcast
12:34 AM 33.8 °F 30.8 °F 30.2 °F 87% 30.32 in 10.0 mi South 3.5 mph - N/A   Overcast
12:53 AM 33.8 °F 30.8 °F 30.2 °F 87% 30.31 in 10.0 mi South 3.5 mph - N/A   Overcast
1:13 AM 33.8 °F 30.8 °F 30.2 °F 87% 30.29 in 10.0 mi SSE 3.5 mph - N/A   Overcast
1:34 AM 33.8 °F 28.6 °F 30.2 °F 87% 30.28 in 10.0 mi SSE 5.8 mph - N/A   Overcast
1:53 AM 33.8 °F 29.6 °F 30.2 °F 87% 30.29 in 10.0 mi SSE 4.6 mph - N/A   Overcast
2:13 AM 33.8 °F 29.6 °F 30.2 °F 87% 30.29 in 10.0 mi SSE 4.6 mph - N/A   Overcast
2:34 AM 33.8 °F 30.8 °F 30.2 °F 87% 30.30 in 10.0 mi South 3.5 mph - N/A   Overcast
2:53 AM 33.8 °F - 30.2 °F 87% 30.30 in 10.0 mi Calm Calm - N/A   Overcast
3:13 AM 33.8 °F - 30.2 °F 87% 30.29 in 10.0 mi Calm Calm - N/A   Overcast
3:34 AM 33.8 °F 30.8 °F 30.2 °F 87% 30.29 in 10.0 mi SSE 3.5 mph - N/A   Overcast
3:53 AM 33.8 °F 30.8 °F 30.2 °F 87% 30.27 in 10.0 mi SSE 3.5 mph - N/A   Overcast
4:14 AM 33.8 °F 30.8 °F 30.2 °F 87% 30.27 in 10.0 mi South 3.5 mph - N/A   Overcast
4:34 AM 33.8 °F 30.8 °F 32.0 °F 93% 30.26 in 10.0 mi SSE 3.5 mph - N/A   Overcast
4:53 AM 33.8 °F - 32.0 °F 93% 30.26 in 10.0 mi Calm Calm - N/A   Overcast
5:14 AM 33.8 °F 30.8 °F 32.0 °F 93% 30.25 in 7.0 mi SE 3.5 mph - N/A   Overcast
5:34 AM 35.6 °F - 32.0 °F 87% 30.25 in 7.0 mi Calm Calm - N/A   Overcast
5:53 AM 35.6 °F 32.8 °F 32.0 °F 87% 30.25 in 7.0 mi SSE 3.5 mph - N/A   Overcast
6:14 AM 33.8 °F 30.8 °F 32.0 °F 93% 30.23 in 7.0 mi SE 3.5 mph - N/A   Overcast
6:34 AM 35.6 °F 31.7 °F 32.0 °F 87% 30.23 in 7.0 mi SSE 4.6 mph - N/A   Overcast
6:53 AM 35.6 °F 32.8 °F 32.0 °F 87% 30.23 in 7.0 mi SE 3.5 mph - N/A   Overcast
7:14 AM 35.6 °F - 32.0 °F 87% 30.23 in 7.0 mi Calm Calm - N/A   Overcast
7:34 AM 35.6 °F 31.7 °F 32.0 °F 87% 30.22 in 7.0 mi SSE 4.6 mph - N/A   Overcast
7:53 AM 35.6 °F 31.7 °F 32.0 °F 87% 30.22 in 7.0 mi SSE 4.6 mph - N/A   Overcast
8:14 AM 35.6 °F 31.7 °F 32.0 °F 87% 30.20 in 5.0 mi SSE 4.6 mph - N/A Snow Light Snow
8:34 AM 35.6 °F 30.7 °F 32.0 °F 87% 30.18 in 3.0 mi SE 5.8 mph - N/A Snow Light Snow
8:53 AM 35.6 °F 31.7 °F 32.0 °F 87% 30.17 in 2.5 mi SE 4.6 mph - N/A Snow Light Snow
9:14 AM 35.6 °F 31.7 °F 32.0 °F 87% 30.19 in 2.5 mi SSE 4.6 mph - N/A   Overcast
9:33 AM 35.6 °F 30.7 °F 33.8 °F 93% 30.19 in 2.0 mi SSE 5.8 mph - N/A   Overcast
10:14 AM 35.6 °F 27.5 °F 33.8 °F 93% 30.17 in 1.2 mi South 11.5 mph - N/A Rain Light Rain
10:34 AM 35.6 °F 27.1 °F 35.6 °F 100% 30.13 in 1.5 mi SSE 12.7 mph 17.3 mph N/A Rain Light Rain
10:54 AM 35.6 °F 27.1 °F 35.6 °F 100% 30.12 in 1.8 mi South 12.7 mph 16.1 mph N/A Rain Light Rain
11:14 AM 37.4 °F 29.8 °F 35.6 °F 93% 30.10 in 2.5 mi SSE 11.5 mph 17.3 mph N/A Rain Light Rain
11:33 AM 37.4 °F 29.8 °F 35.6 °F 93% 30.10 in 4.0 mi South 11.5 mph 19.6 mph N/A   Overcast
11:54 AM 37.4 °F 28.9 °F 35.6 °F 93% 30.09 in 4.0 mi South 13.8 mph - N/A Snow Light Snow
12:14 PM 37.4 °F 30.3 °F 35.6 °F 93% 30.10 in 5.0 mi South 10.4 mph - N/A Rain Light Rain
12:33 PM 37.4 °F 30.3 °F 37.4 °F 100% 30.10 in 5.0 mi South 10.4 mph - N/A Rain Light Rain
12:54 PM 37.4 °F 29.8 °F 37.4 °F 100% 30.08 in 1.2 mi South 11.5 mph - N/A Snow Light Snow
1:14 PM 37.4 °F 30.3 °F 37.4 °F 100% 30.05 in 2.5 mi South 10.4 mph - N/A Snow Light Snow
1:33 PM 37.4 °F 30.8 °F 37.4 °F 100% 30.03 in 7.0 mi South 9.2 mph - N/A Snow Light Snow
1:54 PM 37.4 °F 31.4 °F 37.4 °F 100% 30.01 in 7.0 mi SSE 8.1 mph - N/A Rain Light Rain
2:14 PM 39.2 °F 35.0 °F 37.4 °F 93% 29.99 in 10.0 mi SSE 5.8 mph - N/A   Overcast
2:33 PM 39.2 °F 35.0 °F 37.4 °F 93% 29.97 in 10.0 mi SE 5.8 mph - N/A   Overcast
2:54 PM 39.2 °F 37.0 °F 37.4 °F 93% 29.96 in 10.0 mi ESE 3.5 mph - N/A   Overcast
3:14 PM 39.2 °F 35.0 °F 37.4 °F 93% 29.95 in 10.0 mi SE 5.8 mph - N/A   Overcast
3:34 PM 41.0 °F 36.4 °F 39.2 °F 93% 29.93 in 10.0 mi SSE 6.9 mph - N/A   Overcast
3:54 PM 41.0 °F 35.8 °F 39.2 °F 93% 29.94 in 3.0 mi South 8.1 mph - N/A Rain Light Rain
4:14 PM 41.0 °F 35.8 °F 39.2 °F 93% 29.94 in 3.0 mi SSE 8.1 mph - N/A   Overcast
4:34 PM 41.0 °F 37.1 °F 39.2 °F 93% 29.92 in 1.0 mi SSE 5.8 mph - N/A   Unknown
4:54 PM 41.0 °F 36.4 °F 39.2 °F 93% 29.92 in 2.5 mi SSE 6.9 mph - N/A   Overcast
5:13 PM 41.0 °F 35.2 °F 41.0 °F 100% 29.92 in 1.8 mi South 9.2 mph - N/A   Unknown
5:34 PM 41.0 °F 35.2 °F 41.0 °F 100% 29.91 in 2.0 mi South 9.2 mph - N/A   Unknown
5:54 PM 41.0 °F 36.4 °F 41.0 °F 100% 29.90 in 2.0 mi South 6.9 mph - N/A   Overcast
6:13 PM 41.0 °F 36.4 °F 41.0 °F 100% 29.89 in 2.0 mi SSE 6.9 mph - N/A   Overcast
6:34 PM 41.0 °F 35.2 °F 41.0 °F 100% 29.88 in 1.8 mi South 9.2 mph - N/A Rain Light Rain
6:54 PM 41.0 °F 35.8 °F 41.0 °F 100% 29.87 in 1.8 mi South 8.1 mph - N/A Rain Light Rain
7:13 PM 41.0 °F 35.2 °F 41.0 °F 100% 29.86 in 2.0 mi South 9.2 mph - N/A Rain Light Rain
7:34 PM 41.0 °F 36.4 °F 41.0 °F 100% 29.85 in 2.5 mi SSE 6.9 mph - N/A   Overcast
8:14 PM 41.0 °F 35.8 °F 41.0 °F 100% 29.87 in 2.0 mi South 8.1 mph - N/A Rain Light Rain
8:34 PM 41.0 °F 34.7 °F 41.0 °F 100% 29.85 in 2.5 mi South 10.4 mph - N/A Rain Light Rain
8:53 PM 42.8 °F 37.5 °F 42.8 °F 100% 29.84 in 2.5 mi South 9.2 mph - N/A   Overcast
9:14 PM 42.8 °F 37.5 °F 42.8 °F 100% 29.82 in 3.0 mi South 9.2 mph - N/A   Overcast
9:34 PM 42.8 °F 37.5 °F 42.8 °F 100% 29.80 in 4.0 mi South 9.2 mph - N/A   Overcast
9:55 PM 42.8 °F 37.0 °F 42.8 °F 100% 29.80 in 4.0 mi South 10.4 mph - N/A   Overcast
10:14 PM 44.6 °F 39.7 °F 44.6 °F 100% 29.78 in 1.8 mi South 9.2 mph - N/A   Overcast
10:34 PM 44.6 °F 39.7 °F 44.6 °F 100% 29.75 in 2.0 mi South 9.2 mph - N/A Rain Light Rain
10:53 PM 44.6 °F 39.7 °F 44.6 °F 100% 29.74 in 3.0 mi South 9.2 mph - N/A   Overcast
11:13 PM 44.6 °F 39.7 °F 44.6 °F 100% 29.73 in 3.0 mi South 9.2 mph - N/A   Overcast
11:34 PM 46.4 °F 42.4 °F 46.4 °F 100% 29.72 in 4.0 mi South 8.1 mph - N/A   Overcast
11:53 PM 46.4 °F 41.5 °F 46.4 °F 100% 29.72 in 5.0 mi SSW 10.4 mph - N/A   Overcast